contact:dominique.lefevre@mio.osupytheas.fr, maurice.libes@osupytheas.fr, didier.mallarino@osupytheas.fr
Project:EMSO http://www.emso-fr.org/EMSO-France
Depth: 2436.0 m
Title:EMSO Ligure Ouest : Data MII capteur MICROCAT
DateTime_Computer,Latitude,Longitude,Temperature,Conductivity,Pressure,DateTime_Instrument
DateTime_Computer,Latitude,Longitude,degC,S m-1,dbar,DateTime_Instrument
2022-09-18T00:01:58Z,42.805,6.029,13.3008,4.60049,2470.39,2022-9-18T02:03:51Z
2022-09-18T00:05:02Z,42.805,6.029,13.3009,4.60049,2470.39,2022-9-18T02:06:54Z
2022-09-18T00:08:05Z,42.805,6.029,13.3007,4.60058,2470.39,2022-9-18T02:09:57Z
2022-09-18T00:11:08Z,42.805,6.029,13.3006,4.60050,2470.366,2022-9-18T02:13:00Z
2022-09-18T00:14:11Z,42.805,6.029,13.3010,4.60051,2470.413,2022-9-18T02:16:04Z
2022-09-18T00:17:14Z,42.805,6.029,13.3008,4.60049,2470.404,2022-9-18T02:19:07Z
2022-09-18T00:20:17Z,42.805,6.029,13.3006,4.60049,2470.39,2022-9-18T02:22:10Z
2022-09-18T00:23:20Z,42.805,6.029,13.3009,4.60048,2470.366,2022-9-18T02:25:13Z
2022-09-18T00:26:23Z,42.805,6.029,13.3009,4.60054,2470.38,2022-9-18T02:28:16Z
2022-09-18T00:29:27Z,42.805,6.029,13.3009,4.60049,2470.366,2022-9-18T02:31:19Z
2022-09-18T00:32:30Z,42.805,6.029,13.3006,4.60054,2470.366,2022-9-18T02:34:22Z
2022-09-18T00:35:33Z,42.805,6.029,13.3011,4.60052,2470.404,2022-9-18T02:37:25Z
2022-09-18T00:38:36Z,42.805,6.029,13.3009,4.60051,2470.39,2022-9-18T02:40:29Z
2022-09-18T00:41:39Z,42.805,6.029,13.3008,4.60053,2470.39,2022-9-18T02:43:32Z
2022-09-18T00:44:42Z,42.805,6.029,13.3006,4.60050,2470.366,2022-9-18T02:46:35Z
2022-09-18T00:47:45Z,42.805,6.029,13.3005,4.60049,2470.427,2022-9-18T02:49:38Z
2022-09-18T00:50:48Z,42.805,6.029,13.3004,4.60051,2470.366,2022-9-18T02:52:41Z
2022-09-18T00:53:52Z,42.805,6.029,13.3006,4.60050,2470.39,2022-9-18T02:55:44Z
2022-09-18T00:56:55Z,42.805,6.029,13.3009,4.60053,2470.39,2022-9-18T02:58:47Z
2022-09-18T00:59:58Z,42.805,6.029,13.3011,4.60049,2470.413,2022-9-18T03:01:50Z
2022-09-18T01:03:01Z,42.805,6.029,13.3014,4.60052,2470.427,2022-9-18T03:04:54Z
2022-09-18T01:06:04Z,42.805,6.029,13.3004,4.60049,2470.404,2022-9-18T03:07:57Z
2022-09-18T01:09:07Z,42.805,6.029,13.3007,4.60049,2470.413,2022-9-18T03:11:00Z
2022-09-18T01:12:10Z,42.805,6.029,13.3001,4.60054,2470.413,2022-9-18T03:14:03Z
2022-09-18T01:15:13Z,42.805,6.029,13.3009,4.60049,2470.413,2022-9-18T03:17:06Z
2022-09-18T01:18:16Z,42.805,6.029,13.3007,4.60050,2470.427,2022-9-18T03:20:09Z
2022-09-18T01:21:20Z,42.805,6.029,13.3004,4.60051,2470.427,2022-9-18T03:23:12Z
2022-09-18T01:24:23Z,42.805,6.029,13.3008,4.60051,2470.39,2022-9-18T03:26:15Z
2022-09-18T01:27:26Z,42.805,6.029,13.3009,4.60049,2470.39,2022-9-18T03:29:19Z
2022-09-18T01:30:29Z,42.805,6.029,13.3009,4.60049,2470.404,2022-9-18T03:32:22Z
2022-09-18T01:33:32Z,42.805,6.029,13.3006,4.60049,2470.413,2022-9-18T03:35:25Z
2022-09-18T01:36:35Z,42.805,6.029,13.3007,4.60049,2470.366,2022-9-18T03:38:28Z
2022-09-18T01:39:38Z,42.805,6.029,13.3007,4.60051,2470.413,2022-9-18T03:41:31Z
2022-09-18T01:42:41Z,42.805,6.029,13.3007,4.60049,2470.39,2022-9-18T03:44:34Z
2022-09-18T01:45:45Z,42.805,6.029,13.3005,4.60049,2470.39,2022-9-18T03:47:37Z
2022-09-18T01:48:48Z,42.805,6.029,13.3009,4.60049,2470.39,2022-9-18T03:50:40Z
2022-09-18T01:51:51Z,42.805,6.029,13.3008,4.60054,2470.413,2022-9-18T03:53:43Z
2022-09-18T01:54:54Z,42.805,6.029,13.3007,4.60048,2470.38,2022-9-18T03:56:47Z
2022-09-18T01:57:57Z,42.805,6.029,13.3006,4.60049,2470.404,2022-9-18T03:59:50Z
2022-09-18T02:01:00Z,42.805,6.029,13.3010,4.60047,2470.413,2022-9-18T04:02:53Z
2022-09-18T02:04:03Z,42.805,6.029,13.3006,4.60049,2470.366,2022-9-18T04:05:56Z
2022-09-18T02:07:06Z,42.805,6.029,13.3007,4.60049,2470.366,2022-9-18T04:08:59Z
2022-09-18T02:10:10Z,42.805,6.029,13.3005,4.60049,2470.39,2022-9-18T04:12:02Z
2022-09-18T02:13:13Z,42.805,6.029,13.3009,4.60049,2470.39,2022-9-18T04:15:05Z
2022-09-18T02:16:16Z,42.805,6.029,13.3008,4.60049,2470.366,2022-9-18T04:18:08Z
2022-09-18T02:19:19Z,42.805,6.029,13.3007,4.60049,2470.39,2022-9-18T04:21:12Z
2022-09-18T02:22:22Z,42.805,6.029,13.3010,4.60047,2470.38,2022-9-18T04:24:15Z
2022-09-18T02:25:25Z,42.805,6.029,13.3006,4.60047,2470.404,2022-9-18T04:27:18Z
2022-09-18T02:28:28Z,42.805,6.029,13.3011,4.60049,2470.427,2022-9-18T04:30:21Z
2022-09-18T02:31:31Z,42.805,6.029,13.3006,4.60049,2470.366,2022-9-18T04:33:24Z
2022-09-18T02:34:35Z,42.805,6.029,13.3006,4.60049,2470.427,2022-9-18T04:36:27Z
2022-09-18T02:37:38Z,42.805,6.029,13.3009,4.60049,2470.413,2022-9-18T04:39:30Z
2022-09-18T02:40:41Z,42.805,6.029,13.3009,4.60051,2470.366,2022-9-18T04:42:33Z
2022-09-18T02:43:44Z,42.805,6.029,13.3010,4.60049,2470.366,2022-9-18T04:45:37Z
2022-09-18T02:46:47Z,42.805,6.029,13.3006,4.60049,2470.38,2022-9-18T04:48:40Z
2022-09-18T02:49:50Z,42.805,6.029,13.3009,4.60049,2470.343,2022-9-18T04:51:43Z
2022-09-18T02:52:53Z,42.805,6.029,13.3009,4.60049,2470.343,2022-9-18T04:54:46Z
2022-09-18T02:55:56Z,42.805,6.029,13.3010,4.60052,2470.366,2022-9-18T04:57:49Z
2022-09-18T02:58:59Z,42.805,6.029,13.3009,4.60047,2470.38,2022-9-18T05:00:52Z
2022-09-18T03:02:03Z,42.805,6.029,13.3011,4.60047,2470.38,2022-9-18T05:03:55Z
2022-09-18T03:05:06Z,42.805,6.029,13.3011,4.60047,2470.38,2022-9-18T05:06:58Z
2022-09-18T03:08:09Z,42.805,6.029,13.3008,4.60049,2470.343,2022-9-18T05:10:01Z
2022-09-18T03:11:12Z,42.805,6.029,13.3007,4.60048,2470.343,2022-9-18T05:13:05Z
2022-09-18T03:14:15Z,42.805,6.029,13.3009,4.60050,2470.39,2022-9-18T05:16:08Z
2022-09-18T03:17:18Z,42.805,6.029,13.3009,4.60051,2470.357,2022-9-18T05:19:11Z
2022-09-18T03:20:21Z,42.805,6.029,13.3005,4.60047,2470.366,2022-9-18T05:22:14Z
2022-09-18T03:23:24Z,42.805,6.029,13.3007,4.60053,2470.404,2022-9-18T05:25:17Z
2022-09-18T03:26:28Z,42.805,6.029,13.3007,4.60048,2470.366,2022-9-18T05:28:20Z
2022-09-18T03:29:31Z,42.805,6.029,13.3009,4.60049,2470.38,2022-9-18T05:31:23Z
2022-09-18T03:32:34Z,42.805,6.029,13.3010,4.60049,2470.343,2022-9-18T05:34:26Z
2022-09-18T03:35:37Z,42.805,6.029,13.3008,4.60050,2470.366,2022-9-18T05:37:30Z
2022-09-18T03:38:40Z,42.805,6.029,13.3010,4.60053,2470.404,2022-9-18T05:40:33Z
2022-09-18T03:41:43Z,42.805,6.029,13.3004,4.60049,2470.38,2022-9-18T05:43:36Z
2022-09-18T03:44:46Z,42.805,6.029,13.3005,4.60052,2470.366,2022-9-18T05:46:39Z
2022-09-18T03:47:49Z,42.805,6.029,13.3009,4.60053,2470.343,2022-9-18T05:49:42Z
2022-09-18T03:50:53Z,42.805,6.029,13.3011,4.60050,2470.343,2022-9-18T05:52:45Z
2022-09-18T03:53:56Z,42.805,6.029,13.3004,4.60049,2470.366,2022-9-18T05:55:48Z
2022-09-18T03:56:59Z,42.805,6.029,13.3006,4.60049,2470.343,2022-9-18T05:58:51Z
2022-09-18T04:00:02Z,42.805,6.029,13.3010,4.60049,2470.38,2022-9-18T06:01:55Z
2022-09-18T04:03:05Z,42.805,6.029,13.3005,4.60050,2470.357,2022-9-18T06:04:58Z
2022-09-18T04:06:08Z,42.805,6.029,13.3010,4.60049,2470.404,2022-9-18T06:08:01Z
2022-09-18T04:09:11Z,42.805,6.029,13.3010,4.60050,2470.366,2022-9-18T06:11:04Z
2022-09-18T04:12:14Z,42.805,6.029,13.3011,4.60049,2470.39,2022-9-18T06:14:07Z
2022-09-18T04:15:17Z,42.805,6.029,13.3010,4.60051,2470.38,2022-9-18T06:17:10Z
2022-09-18T04:18:21Z,42.805,6.029,13.3006,4.60052,2470.366,2022-9-18T06:20:13Z
2022-09-18T04:21:24Z,42.805,6.029,13.3011,4.60051,2470.343,2022-9-18T06:23:16Z
2022-09-18T04:24:27Z,42.805,6.029,13.3008,4.60051,2470.366,2022-9-18T06:26:20Z
2022-09-18T04:27:30Z,42.805,6.029,13.3009,4.60052,2470.357,2022-9-18T06:29:23Z
2022-09-18T04:30:33Z,42.805,6.029,13.3004,4.60052,2470.32,2022-9-18T06:32:26Z
2022-09-18T04:33:36Z,42.805,6.029,13.3011,4.60052,2470.366,2022-9-18T06:35:29Z
2022-09-18T04:36:39Z,42.805,6.029,13.3008,4.60054,2470.343,2022-9-18T06:38:32Z
2022-09-18T04:39:42Z,42.805,6.029,13.3010,4.60049,2470.343,2022-9-18T06:41:35Z
2022-09-18T04:42:46Z,42.805,6.029,13.3011,4.60053,2470.343,2022-9-18T06:44:38Z
2022-09-18T04:45:49Z,42.805,6.029,13.3015,4.60053,2470.343,2022-9-18T06:47:41Z
2022-09-18T04:48:52Z,42.805,6.029,13.3010,4.60049,2470.32,2022-9-18T06:50:45Z
2022-09-18T04:51:55Z,42.805,6.029,13.3006,4.60050,2470.32,2022-9-18T06:53:48Z
2022-09-18T04:54:58Z,42.805,6.029,13.3015,4.60051,2470.357,2022-9-18T06:56:51Z
2022-09-18T04:58:01Z,42.805,6.029,13.3019,4.60053,2470.343,2022-9-18T06:59:54Z
2022-09-18T05:01:04Z,42.805,6.029,13.3013,4.60053,2470.38,2022-9-18T07:02:57Z
2022-09-18T05:04:07Z,42.805,6.029,13.3011,4.60052,2470.32,2022-9-18T07:06:00Z
2022-09-18T05:07:11Z,42.805,6.029,13.3027,4.60076,2470.334,2022-9-18T07:09:03Z
2022-09-18T05:10:14Z,42.805,6.029,13.3023,4.60069,2470.32,2022-9-18T07:12:06Z
2022-09-18T05:13:17Z,42.805,6.029,13.3036,4.60068,2470.343,2022-9-18T07:15:09Z
2022-09-18T05:16:20Z,42.805,6.029,13.3042,4.60078,2470.38,2022-9-18T07:18:13Z
2022-09-18T05:19:23Z,42.805,6.029,13.3024,4.60106,2470.366,2022-9-18T07:21:16Z
2022-09-18T05:22:26Z,42.805,6.029,13.3017,4.60080,2470.38,2022-9-18T07:24:19Z
2022-09-18T05:25:29Z,42.805,6.029,13.3031,4.60083,2470.404,2022-9-18T07:27:22Z
2022-09-18T05:28:32Z,42.805,6.029,13.3029,4.60069,2470.334,2022-9-18T07:30:25Z
2022-09-18T05:31:35Z,42.805,6.029,13.3034,4.60072,2470.366,2022-9-18T07:33:28Z
2022-09-18T05:34:39Z,42.805,6.029,13.3044,4.60075,2470.357,2022-9-18T07:36:31Z
2022-09-18T05:37:42Z,42.805,6.029,13.3020,4.60056,2470.343,2022-9-18T07:39:34Z
2022-09-18T05:40:45Z,42.805,6.029,13.3029,4.60074,2470.38,2022-9-18T07:42:38Z
2022-09-18T05:43:48Z,42.805,6.029,13.3022,4.60069,2470.343,2022-9-18T07:45:41Z
2022-09-18T05:46:51Z,42.805,6.029,13.3026,4.60079,2470.32,2022-9-18T07:48:44Z
2022-09-18T05:49:54Z,42.805,6.029,13.3022,4.60069,2470.357,2022-9-18T07:51:47Z
2022-09-18T05:52:57Z,42.805,6.029,13.3042,4.60076,2470.343,2022-9-18T07:54:50Z
2022-09-18T05:56:00Z,42.805,6.029,13.3043,4.60072,2470.38,2022-9-18T07:57:53Z
2022-09-18T05:59:04Z,42.805,6.029,13.3024,4.60075,2470.357,2022-9-18T08:00:56Z
2022-09-18T06:02:07Z,42.805,6.029,13.3037,4.60080,2470.366,2022-9-18T08:03:59Z
2022-09-18T06:05:10Z,42.805,6.029,13.3009,4.60054,2470.343,2022-9-18T08:07:03Z
2022-09-18T06:08:13Z,42.805,6.029,13.3029,4.60072,2470.343,2022-9-18T08:10:06Z
2022-09-18T06:11:16Z,42.805,6.029,13.3031,4.60078,2470.32,2022-9-18T08:13:09Z
2022-09-18T06:14:19Z,42.805,6.029,13.3017,4.60087,2470.39,2022-9-18T08:16:12Z
2022-09-18T06:17:22Z,42.805,6.029,13.3032,4.60094,2470.366,2022-9-18T08:19:15Z
2022-09-18T06:20:25Z,42.805,6.029,13.3036,4.60096,2470.343,2022-9-18T08:22:18Z
2022-09-18T06:23:29Z,42.805,6.029,13.3036,4.60082,2470.357,2022-9-18T08:25:21Z
2022-09-18T06:26:32Z,42.805,6.029,13.3032,4.60097,2470.39,2022-9-18T08:28:24Z
2022-09-18T06:29:35Z,42.805,6.029,13.3033,4.60089,2470.366,2022-9-18T08:31:27Z
2022-09-18T06:32:38Z,42.805,6.029,13.3044,4.60084,2470.343,2022-9-18T08:34:31Z
2022-09-18T06:35:41Z,42.805,6.029,13.3035,4.60088,2470.39,2022-9-18T08:37:34Z
2022-09-18T06:38:44Z,42.805,6.029,13.3031,4.60078,2470.343,2022-9-18T08:40:37Z
2022-09-18T06:41:47Z,42.805,6.029,13.3036,4.60084,2470.38,2022-9-18T08:43:40Z
2022-09-18T06:44:50Z,42.805,6.029,13.3023,4.60082,2470.343,2022-9-18T08:46:43Z
2022-09-18T06:47:54Z,42.805,6.029,13.3029,4.60109,2470.343,2022-9-18T08:49:46Z
2022-09-18T06:50:57Z,42.805,6.029,13.3024,4.60099,2470.366,2022-9-18T08:52:49Z
2022-09-18T06:54:00Z,42.805,6.029,13.3031,4.60090,2470.38,2022-9-18T08:55:52Z
2022-09-18T06:57:03Z,42.805,6.029,13.3026,4.60103,2470.357,2022-9-18T08:58:56Z
2022-09-18T07:00:06Z,42.805,6.029,13.3033,4.60122,2470.38,2022-9-18T09:01:59Z
2022-09-18T07:03:09Z,42.805,6.029,13.3034,4.60122,2470.343,2022-9-18T09:05:02Z
2022-09-18T07:06:12Z,42.805,6.029,13.3026,4.60127,2470.343,2022-9-18T09:08:05Z
2022-09-18T07:09:15Z,42.805,6.029,13.3017,4.60107,2470.38,2022-9-18T09:11:08Z
2022-09-18T07:12:19Z,42.805,6.029,13.3028,4.60127,2470.38,2022-9-18T09:14:11Z
2022-09-18T07:15:22Z,42.805,6.029,13.3041,4.60111,2470.357,2022-9-18T09:17:14Z
2022-09-18T07:18:25Z,42.805,6.029,13.3026,4.60127,2470.366,2022-9-18T09:20:17Z
2022-09-18T07:21:28Z,42.805,6.029,13.3065,4.60096,2470.38,2022-9-18T09:23:20Z
2022-09-18T07:24:31Z,42.805,6.029,13.3029,4.60111,2470.38,2022-9-18T09:26:24Z
2022-09-18T07:27:34Z,42.805,6.029,13.3024,4.60093,2470.38,2022-9-18T09:29:27Z
2022-09-18T07:30:37Z,42.805,6.029,13.3034,4.60111,2470.366,2022-9-18T09:32:30Z
2022-09-18T07:33:40Z,42.805,6.029,13.3026,4.60126,2470.343,2022-9-18T09:35:33Z
2022-09-18T07:36:44Z,42.805,6.029,13.3022,4.60110,2470.39,2022-9-18T09:38:36Z
2022-09-18T07:39:47Z,42.805,6.029,13.3024,4.60099,2470.39,2022-9-18T09:41:39Z
2022-09-18T07:42:50Z,42.805,6.029,13.3021,4.60125,2470.376,2022-9-18T09:44:42Z
2022-09-18T07:45:53Z,42.805,6.029,13.3031,4.60114,2470.39,2022-9-18T09:47:46Z
2022-09-18T07:48:56Z,42.805,6.029,13.3031,4.60121,2470.404,2022-9-18T09:50:49Z
2022-09-18T07:51:59Z,42.805,6.029,13.3024,4.60126,2470.366,2022-9-18T09:53:52Z
2022-09-18T07:55:02Z,42.805,6.029,13.3021,4.60097,2470.343,2022-9-18T09:56:55Z
2022-09-18T07:58:05Z,42.805,6.029,13.3024,4.60142,2470.39,2022-9-18T09:59:58Z
2022-09-18T08:01:08Z,42.805,6.029,13.3029,4.60127,2470.413,2022-9-18T10:03:01Z
2022-09-18T08:04:12Z,42.805,6.029,13.3024,4.60142,2470.413,2022-9-18T10:06:04Z
2022-09-18T08:07:15Z,42.805,6.029,13.3027,4.60114,2470.413,2022-9-18T10:09:07Z
2022-09-18T08:10:18Z,42.805,6.029,13.3041,4.60137,2470.413,2022-9-18T10:12:10Z
2022-09-18T08:13:21Z,42.805,6.029,13.3035,4.60096,2470.413,2022-9-18T10:15:14Z
2022-09-18T08:16:24Z,42.805,6.029,13.3048,4.60140,2470.39,2022-9-18T10:18:17Z
2022-09-18T08:19:27Z,42.805,6.029,13.3028,4.60125,2470.38,2022-9-18T10:21:20Z
2022-09-18T08:22:30Z,42.805,6.029,13.3023,4.60128,2470.39,2022-9-18T10:24:23Z
2022-09-18T08:25:34Z,42.805,6.029,13.3024,4.60139,2470.45,2022-9-18T10:27:26Z
2022-09-18T08:28:37Z,42.805,6.029,13.3025,4.60102,2470.38,2022-9-18T10:30:29Z
2022-09-18T08:31:40Z,42.805,6.029,13.3032,4.60104,2470.413,2022-9-18T10:33:32Z
2022-09-18T08:34:43Z,42.805,6.029,13.3036,4.60135,2470.427,2022-9-18T10:36:36Z
2022-09-18T08:37:46Z,42.805,6.029,13.3031,4.60123,2470.413,2022-9-18T10:39:39Z
2022-09-18T08:40:49Z,42.805,6.029,13.3040,4.60135,2470.39,2022-9-18T10:42:42Z
2022-09-18T08:43:52Z,42.805,6.029,13.3041,4.60110,2470.413,2022-9-18T10:45:45Z
2022-09-18T08:46:55Z,42.805,6.029,13.3026,4.60118,2470.413,2022-9-18T10:48:48Z
2022-09-18T08:49:59Z,42.805,6.029,13.3041,4.60114,2470.427,2022-9-18T10:51:51Z
2022-09-18T08:53:02Z,42.805,6.029,13.3037,4.60129,2470.399,2022-9-18T10:54:54Z
2022-09-18T08:56:05Z,42.805,6.029,13.3054,4.60135,2470.39,2022-9-18T10:57:57Z
2022-09-18T08:59:08Z,42.805,6.029,13.3043,4.60115,2470.39,2022-9-18T11:01:01Z
2022-09-18T09:02:11Z,42.805,6.029,13.3032,4.60115,2470.413,2022-9-18T11:04:04Z
2022-09-18T09:05:14Z,42.805,6.029,13.3048,4.60162,2470.427,2022-9-18T11:07:07Z
2022-09-18T09:08:17Z,42.805,6.029,13.3054,4.60154,2470.413,2022-9-18T11:10:10Z
2022-09-18T09:11:20Z,42.805,6.029,13.3038,4.60115,2470.413,2022-9-18T11:13:13Z
2022-09-18T09:14:24Z,42.805,6.029,13.3048,4.60132,2470.39,2022-9-18T11:16:16Z
2022-09-18T09:17:27Z,42.805,6.029,13.3025,4.60113,2470.437,2022-9-18T11:19:19Z
2022-09-18T09:20:30Z,42.805,6.029,13.3047,4.60129,2470.413,2022-9-18T11:22:22Z
2022-09-18T09:23:33Z,42.805,6.029,13.3024,4.60115,2470.45,2022-9-18T11:25:26Z
2022-09-18T09:26:36Z,42.805,6.029,13.3020,4.60138,2470.413,2022-9-18T11:28:29Z
2022-09-18T09:29:39Z,42.805,6.029,13.3026,4.60117,2470.427,2022-9-18T11:31:32Z
2022-09-18T09:32:42Z,42.805,6.029,13.3037,4.60108,2470.413,2022-9-18T11:34:35Z
2022-09-18T09:35:45Z,42.805,6.029,13.3041,4.60102,2470.497,2022-9-18T11:37:38Z
2022-09-18T09:38:49Z,42.805,6.029,13.3029,4.60131,2470.39,2022-9-18T11:40:41Z
2022-09-18T09:41:52Z,42.805,6.029,13.3031,4.60115,2470.45,2022-9-18T11:43:44Z
2022-09-18T09:44:55Z,42.805,6.029,13.3043,4.60102,2470.427,2022-9-18T11:46:47Z
2022-09-18T09:47:58Z,42.805,6.029,13.3055,4.60086,2470.427,2022-9-18T11:49:51Z
2022-09-18T09:51:01Z,42.805,6.029,13.3026,4.60155,2470.427,2022-9-18T11:52:54Z
2022-09-18T09:54:04Z,42.805,6.029,13.3046,4.60122,2470.413,2022-9-18T11:55:57Z
2022-09-18T09:57:07Z,42.805,6.029,13.3046,4.60125,2470.46,2022-9-18T11:59:00Z
2022-09-18T10:00:10Z,42.805,6.029,13.3044,4.60140,2470.45,2022-9-18T12:02:03Z
2022-09-18T10:03:14Z,42.805,6.029,13.3031,4.60111,2470.437,2022-9-18T12:05:06Z
2022-09-18T10:06:17Z,42.805,6.029,13.3032,4.60110,2470.45,2022-9-18T12:08:09Z
2022-09-18T10:09:20Z,42.805,6.029,13.3028,4.60113,2470.427,2022-9-18T12:11:12Z
2022-09-18T10:12:23Z,42.805,6.029,13.3031,4.60127,2470.437,2022-9-18T12:14:16Z
2022-09-18T10:15:26Z,42.805,6.029,13.3039,4.60104,2470.46,2022-9-18T12:17:19Z
2022-09-18T10:18:29Z,42.805,6.029,13.3046,4.60106,2470.483,2022-9-18T12:20:22Z
2022-09-18T10:21:32Z,42.805,6.029,13.3029,4.60108,2470.413,2022-9-18T12:23:25Z
2022-09-18T10:24:35Z,42.805,6.029,13.3030,4.60149,2470.474,2022-9-18T12:26:28Z
2022-09-18T10:27:39Z,42.805,6.029,13.3027,4.60115,2470.437,2022-9-18T12:29:31Z
2022-09-18T10:30:42Z,42.805,6.029,13.3038,4.60104,2470.437,2022-9-18T12:32:34Z
2022-09-18T10:33:45Z,42.805,6.029,13.3036,4.60118,2470.483,2022-9-18T12:35:37Z
2022-09-18T10:36:48Z,42.805,6.029,13.3044,4.60126,2470.46,2022-9-18T12:38:41Z
2022-09-18T10:39:51Z,42.805,6.029,13.3048,4.60099,2470.437,2022-9-18T12:41:44Z
2022-09-18T10:42:54Z,42.805,6.029,13.3043,4.60125,2470.474,2022-9-18T12:44:47Z
2022-09-18T10:45:57Z,42.805,6.029,13.3029,4.60184,2470.483,2022-9-18T12:47:50Z
2022-09-18T10:49:00Z,42.805,6.029,13.3035,4.60178,2470.474,2022-9-18T12:50:53Z
2022-09-18T10:52:04Z,42.805,6.029,13.3049,4.60152,2470.474,2022-9-18T12:53:56Z
2022-09-18T10:55:07Z,42.805,6.029,13.3064,4.60135,2470.46,2022-9-18T12:56:59Z
2022-09-18T10:58:10Z,42.805,6.029,13.3070,4.60115,2470.46,2022-9-18T13:00:02Z
2022-09-18T11:01:13Z,42.805,6.029,13.3041,4.60131,2470.46,2022-9-18T13:03:06Z
2022-09-18T11:04:16Z,42.805,6.029,13.3059,4.60104,2470.45,2022-9-18T13:06:09Z
2022-09-18T11:07:19Z,42.805,6.029,13.3056,4.60104,2470.46,2022-9-18T13:09:12Z
2022-09-18T11:10:22Z,42.805,6.029,13.3068,4.60155,2470.497,2022-9-18T13:12:15Z
2022-09-18T11:13:25Z,42.805,6.029,13.3050,4.60125,2470.474,2022-9-18T13:15:18Z
2022-09-18T11:16:29Z,42.805,6.029,13.3062,4.60104,2470.483,2022-9-18T13:18:21Z
2022-09-18T11:19:32Z,42.805,6.029,13.3049,4.60110,2470.474,2022-9-18T13:21:24Z
2022-09-18T11:22:35Z,42.805,6.029,13.3060,4.60089,2470.46,2022-9-18T13:24:27Z
2022-09-18T11:25:38Z,42.805,6.029,13.3067,4.60127,2470.497,2022-9-18T13:27:31Z
2022-09-18T11:28:41Z,42.805,6.029,13.3078,4.60136,2470.46,2022-9-18T13:30:34Z
2022-09-18T11:31:44Z,42.805,6.029,13.3062,4.60107,2470.507,2022-9-18T13:33:37Z
2022-09-18T11:34:47Z,42.805,6.029,13.3046,4.60117,2470.497,2022-9-18T13:36:40Z
2022-09-18T11:37:50Z,42.805,6.029,13.3066,4.60116,2470.497,2022-9-18T13:39:43Z
2022-09-18T11:40:54Z,42.805,6.029,13.3064,4.60150,2470.497,2022-9-18T13:42:46Z
2022-09-18T11:43:57Z,42.805,6.029,13.3068,4.60131,2470.497,2022-9-18T13:45:49Z
2022-09-18T11:47:00Z,42.805,6.029,13.3066,4.60116,2470.474,2022-9-18T13:48:53Z
2022-09-18T11:50:03Z,42.805,6.029,13.3057,4.60129,2470.507,2022-9-18T13:51:56Z
2022-09-18T11:53:06Z,42.805,6.029,13.3058,4.60127,2470.497,2022-9-18T13:54:59Z
2022-09-18T11:56:09Z,42.805,6.029,13.3076,4.60141,2470.497,2022-9-18T13:58:02Z
2022-09-18T11:59:12Z,42.805,6.029,13.3071,4.60133,2470.52,2022-9-18T14:01:05Z
2022-09-18T12:02:15Z,42.805,6.029,13.3090,4.60130,2470.483,2022-9-18T14:04:08Z
2022-09-18T12:05:19Z,42.805,6.029,13.3082,4.60122,2470.52,2022-9-18T14:07:11Z
2022-09-18T12:08:22Z,42.805,6.029,13.3098,4.60110,2470.497,2022-9-18T14:10:14Z
2022-09-18T12:11:25Z,42.805,6.029,13.3109,4.60092,2470.474,2022-9-18T14:13:18Z
2022-09-18T12:14:28Z,42.805,6.029,13.3106,4.60084,2470.497,2022-9-18T14:16:21Z
2022-09-18T12:17:31Z,42.805,6.029,13.3093,4.60075,2470.483,2022-9-18T14:19:24Z
2022-09-18T12:20:34Z,42.805,6.029,13.3108,4.60073,2470.45,2022-9-18T14:22:27Z
2022-09-18T12:23:37Z,42.805,6.029,13.3109,4.60085,2470.483,2022-9-18T14:25:30Z
2022-09-18T12:26:40Z,42.805,6.029,13.3103,4.60077,2470.52,2022-9-18T14:28:33Z
2022-09-18T12:29:44Z,42.805,6.029,13.3109,4.60076,2470.497,2022-9-18T14:31:36Z
2022-09-18T12:32:47Z,42.805,6.029,13.3061,4.60093,2470.497,2022-9-18T14:34:39Z
2022-09-18T12:35:50Z,42.805,6.029,13.3112,4.60122,2470.497,2022-9-18T14:37:43Z
2022-09-18T12:38:53Z,42.805,6.029,13.3051,4.60068,2470.53,2022-9-18T14:40:46Z
2022-09-18T12:41:56Z,42.805,6.029,13.3120,4.60064,2470.511,2022-9-18T14:43:49Z
2022-09-18T12:44:59Z,42.805,6.029,13.3034,4.60093,2470.497,2022-9-18T14:46:52Z
2022-09-18T12:48:02Z,42.805,6.029,13.3023,4.60077,2470.497,2022-9-18T14:49:55Z
2022-09-18T12:51:05Z,42.805,6.029,13.3016,4.60076,2470.497,2022-9-18T14:52:58Z
2022-09-18T12:54:09Z,42.805,6.029,13.3015,4.60064,2470.507,2022-9-18T14:56:01Z
2022-09-18T12:57:12Z,42.805,6.029,13.3013,4.60062,2470.497,2022-9-18T14:59:04Z
2022-09-18T13:00:15Z,42.805,6.029,13.3015,4.60072,2470.52,2022-9-18T15:02:08Z
2022-09-18T13:03:18Z,42.805,6.029,13.3015,4.60065,2470.53,2022-9-18T15:05:11Z
2022-09-18T13:06:21Z,42.805,6.029,13.3013,4.60068,2470.507,2022-9-18T15:08:14Z
2022-09-18T13:09:24Z,42.805,6.029,13.3016,4.60065,2470.46,2022-9-18T15:11:17Z
2022-09-18T13:12:27Z,42.805,6.029,13.3011,4.60063,2470.52,2022-9-18T15:14:20Z
2022-09-18T13:15:30Z,42.805,6.029,13.3014,4.60069,2470.497,2022-9-18T15:17:23Z
2022-09-18T13:18:34Z,42.805,6.029,13.3015,4.60074,2470.483,2022-9-18T15:20:26Z
2022-09-18T13:21:37Z,42.805,6.029,13.3021,4.60064,2470.474,2022-9-18T15:23:29Z
2022-09-18T13:24:40Z,42.805,6.029,13.3016,4.60063,2470.483,2022-9-18T15:26:32Z
2022-09-18T13:27:43Z,42.805,6.029,13.3013,4.60108,2470.497,2022-9-18T15:29:36Z
2022-09-18T13:30:46Z,42.805,6.029,13.3012,4.60079,2470.497,2022-9-18T15:32:39Z
2022-09-18T13:33:49Z,42.805,6.029,13.3013,4.60072,2470.497,2022-9-18T15:35:42Z
2022-09-18T13:36:52Z,42.805,6.029,13.3039,4.60069,2470.497,2022-9-18T15:38:45Z
2022-09-18T13:39:55Z,42.805,6.029,13.3012,4.60069,2470.507,2022-9-18T15:41:48Z
2022-09-18T13:42:59Z,42.805,6.029,13.3012,4.60067,2470.497,2022-9-18T15:44:51Z
2022-09-18T13:46:02Z,42.805,6.029,13.3007,4.60061,2470.52,2022-9-18T15:47:54Z
2022-09-18T13:49:05Z,42.805,6.029,13.3010,4.60062,2470.497,2022-9-18T15:50:58Z
2022-09-18T13:52:08Z,42.805,6.029,13.3011,4.60067,2470.483,2022-9-18T15:54:01Z
2022-09-18T13:55:11Z,42.805,6.029,13.3013,4.60067,2470.497,2022-9-18T15:57:04Z
2022-09-18T13:58:14Z,42.805,6.029,13.3014,4.60067,2470.507,2022-9-18T16:00:07Z
2022-09-18T14:01:17Z,42.805,6.029,13.3013,4.60062,2470.507,2022-9-18T16:03:10Z
2022-09-18T14:04:20Z,42.805,6.029,13.3009,4.60063,2470.507,2022-9-18T16:06:13Z
2022-09-18T14:07:24Z,42.805,6.029,13.3011,4.60074,2470.52,2022-9-18T16:09:16Z
2022-09-18T14:10:27Z,42.805,6.029,13.3016,4.60062,2470.52,2022-9-18T16:12:19Z
2022-09-18T14:13:30Z,42.805,6.029,13.3014,4.60057,2470.507,2022-9-18T16:15:23Z
2022-09-18T14:16:33Z,42.805,6.029,13.3011,4.60072,2470.52,2022-9-18T16:18:26Z
2022-09-18T14:19:36Z,42.805,6.029,13.3013,4.60068,2470.497,2022-9-18T16:21:29Z
2022-09-18T14:22:39Z,42.805,6.029,13.3010,4.60071,2470.507,2022-9-18T16:24:32Z
2022-09-18T14:25:42Z,42.805,6.029,13.3015,4.60072,2470.497,2022-9-18T16:27:35Z
2022-09-18T14:28:45Z,42.805,6.029,13.3067,4.60072,2470.483,2022-9-18T16:30:38Z
2022-09-18T14:31:49Z,42.805,6.029,13.3015,4.60072,2470.507,2022-9-18T16:33:41Z
2022-09-18T14:34:52Z,42.805,6.029,13.3012,4.60074,2470.507,2022-9-18T16:36:44Z
2022-09-18T14:37:55Z,42.805,6.029,13.3014,4.60067,2470.483,2022-9-18T16:39:48Z
2022-09-18T14:40:58Z,42.805,6.029,13.3011,4.60066,2470.483,2022-9-18T16:42:51Z
2022-09-18T14:44:01Z,42.805,6.029,13.3015,4.60069,2470.483,2022-9-18T16:45:54Z
2022-09-18T14:47:04Z,42.805,6.029,13.3011,4.60064,2470.483,2022-9-18T16:48:57Z
2022-09-18T14:50:07Z,42.805,6.029,13.3014,4.60060,2470.544,2022-9-18T16:52:00Z
2022-09-18T14:53:10Z,42.805,6.029,13.3010,4.60064,2470.53,2022-9-18T16:55:03Z
2022-09-18T14:56:14Z,42.805,6.029,13.3009,4.60063,2470.497,2022-9-18T16:58:06Z
2022-09-18T14:59:17Z,42.805,6.029,13.3010,4.60059,2470.53,2022-9-18T17:01:09Z
2022-09-18T15:02:20Z,42.805,6.029,13.3011,4.60057,2470.52,2022-9-18T17:04:13Z
2022-09-18T15:05:23Z,42.805,6.029,13.3009,4.60058,2470.507,2022-9-18T17:07:16Z
2022-09-18T15:08:26Z,42.805,6.029,13.3010,4.60060,2470.507,2022-9-18T17:10:19Z
2022-09-18T15:11:29Z,42.805,6.029,13.3006,4.60059,2470.507,2022-9-18T17:13:22Z
2022-09-18T15:14:32Z,42.805,6.029,13.3011,4.60055,2470.497,2022-9-18T17:16:25Z